Stations météo

réclame
Mon MeteoGroup
Gijon, Espagne (8014): Température de l'air & dewpoint: 18.01.2018 10:00:00 - 24.01.2018 10:00:00 (CET)Gijon, Espagne (8014): Vitesse du vent: 18.01.2018 10:00:00 - 24.01.2018 10:00:00 (CET)Gijon, Espagne (8014): Direction du vent: 18.01.2018 10:00:00 - 24.01.2018 10:00:00 (CET)Gijon, Espagne (8014): reduced air pressure: 18.01.2018 10:00:00 - 24.01.2018 10:00:00 (CET)Gijon, Espagne (8014): visibility: 18.01.2018 10:00:00 - 24.01.2018 10:00:00 (CET)
Date & Time tt [°C] td [°C] ff [km/h] ff [knt] dd ppp [hPa] vv [km]
24.01.2018 10:00:00 9,0 7,3 16 9 SW 1023,8 30
24.01.2018 09:00:00 - - - - - - -
24.01.2018 08:00:00 - - - - - - -
24.01.2018 07:00:00 9,0 5,4 11 6 SSW 1023,9 15
24.01.2018 06:00:00 - - - - - - -
24.01.2018 05:00:00 - - - - - - -
24.01.2018 04:00:00 - - - - - - -
24.01.2018 03:00:00 - - - - - - -
24.01.2018 02:00:00 - - - - - - -
24.01.2018 01:00:00 - - - - - - -
24.01.2018 00:00:00 - - - - - - -
23.01.2018 23:00:00 - - - - - - -
23.01.2018 22:00:00 - - - - - - -
23.01.2018 21:00:00 - - - - - - -
23.01.2018 20:00:00 - - - - - - -
23.01.2018 19:00:00 14,0 8,0 0 0 N 1028,0 30
23.01.2018 18:00:00 - - - - - - -
23.01.2018 17:00:00 - - - - - - -
23.01.2018 16:00:00 16,0 9,0 9 5 NE 1027,8 30
23.01.2018 15:00:00 - - - - - - -
23.01.2018 14:00:00 - - - - - - -
23.01.2018 13:00:00 15,6 8,8 5 3 SSW 1029,3 30
23.01.2018 12:00:00 - - - - - - -
23.01.2018 11:00:00 - - - - - - -
23.01.2018 10:00:00 12,4 7,9 9 5 SW 1028,4 25
23.01.2018 09:00:00 - - - - - - -
23.01.2018 08:00:00 - - - - - - -
23.01.2018 07:00:00 13,0 7,2 11 6 SW 1027,9 15
23.01.2018 06:00:00 - - - - - - -
23.01.2018 05:00:00 - - - - - - -
23.01.2018 04:00:00 - - - - - - -
23.01.2018 03:00:00 - - - - - - -
23.01.2018 02:00:00 - - - - - - -
23.01.2018 01:00:00 - - - - - - -
23.01.2018 00:00:00 - - - - - - -
22.01.2018 23:00:00 - - - - - - -
22.01.2018 22:00:00 - - - - - - -
22.01.2018 21:00:00 - - - - - - -
22.01.2018 20:00:00 - - - - - - -
22.01.2018 19:00:00 16,2 9,6 0 0 N 1027,8 30
22.01.2018 18:00:00 - - - - - - -
22.01.2018 17:00:00 - - - - - - -
22.01.2018 16:00:00 19,0 9,5 5 3 SSW 1027,2 30
22.01.2018 15:00:00 - - - - - - -
22.01.2018 14:00:00 - - - - - - -
22.01.2018 13:00:00 16,8 7,7 15 8 SSW 1027,9 30
22.01.2018 12:00:00 - - - - - - -
22.01.2018 11:00:00 - - - - - - -
22.01.2018 10:00:00 10,4 6,5 22 12 SW 1027,3 30
22.01.2018 09:00:00 - - - - - - -
22.01.2018 08:00:00 - - - - - - -
22.01.2018 07:00:00 10,4 7,5 8 4 SSW 1027,2 15
22.01.2018 06:00:00 - - - - - - -
22.01.2018 05:00:00 - - - - - - -
22.01.2018 04:00:00 - - - - - - -
22.01.2018 03:00:00 - - - - - - -
22.01.2018 02:00:00 - - - - - - -
22.01.2018 01:00:00 - - - - - - -
22.01.2018 00:00:00 - - - - - - -
21.01.2018 23:00:00 - - - - - - -
21.01.2018 22:00:00 - - - - - - -
21.01.2018 21:00:00 - - - - - - -
21.01.2018 20:00:00 - - - - - - -
21.01.2018 19:00:00 15,8 11,4 2 1 SSW 1027,7 20
21.01.2018 18:00:00 - - - - - - -
21.01.2018 17:00:00 - - - - - - -
21.01.2018 16:00:00 18,6 11,2 4 2 W 1027,8 30
21.01.2018 15:00:00 - - - - - - -
21.01.2018 14:00:00 - - - - - - -
21.01.2018 13:00:00 17,2 10,3 5 3 N 1028,8 30
21.01.2018 12:00:00 - - - - - - -
21.01.2018 11:00:00 - - - - - - -
21.01.2018 10:00:00 15,8 7,8 8 4 SSW 1028,0 30
21.01.2018 09:00:00 - - - - - - -
21.01.2018 08:00:00 - - - - - - -
21.01.2018 07:00:00 14,0 9,2 4 2 SSW 1027,2 20
21.01.2018 06:00:00 - - - - - - -
21.01.2018 05:00:00 - - - - - - -
21.01.2018 04:00:00 - - - - - - -
21.01.2018 03:00:00 - - - - - - -
21.01.2018 02:00:00 - - - - - - -
21.01.2018 01:00:00 - - - - - - -
21.01.2018 00:00:00 - - - - - - -
20.01.2018 23:00:00 - - - - - - -
20.01.2018 22:00:00 - - - - - - -
20.01.2018 21:00:00 - - - - - - -
20.01.2018 20:00:00 - - - - - - -
20.01.2018 19:00:00 16,8 8,0 18 10 SW 1023,9 30
20.01.2018 18:00:00 - - - - - - -
20.01.2018 17:00:00 - - - - - - -
20.01.2018 16:00:00 18,2 8,5 18 10 WSW 1022,5 30
20.01.2018 15:00:00 - - - - - - -
20.01.2018 14:00:00 - - - - - - -
20.01.2018 13:00:00 17,8 8,1 22 12 WSW 1023,1 30
20.01.2018 12:00:00 - - - - - - -
20.01.2018 11:00:00 - - - - - - -
20.01.2018 10:00:00 13,2 4,9 11 6 SW 1023,1 30
20.01.2018 09:00:00 - - - - - - -
20.01.2018 08:00:00 - - - - - - -
20.01.2018 07:00:00 11,4 4,8 8 4 SW 1022,8 15
20.01.2018 06:00:00 - - - - - - -
20.01.2018 05:00:00 - - - - - - -
20.01.2018 04:00:00 - - - - - - -
20.01.2018 03:00:00 - - - - - - -
20.01.2018 02:00:00 - - - - - - -
20.01.2018 01:00:00 - - - - - - -
20.01.2018 00:00:00 - - - - - - -
19.01.2018 23:00:00 - - - - - - -
19.01.2018 22:00:00 - - - - - - -
19.01.2018 21:00:00 - - - - - - -
19.01.2018 20:00:00 - - - - - - -
19.01.2018 19:00:00 12,8 6,4 5 3 S 1026,5 25
19.01.2018 18:00:00 - - - - - - -
19.01.2018 17:00:00 - - - - - - -
19.01.2018 16:00:00 14,6 4,0 5 3 S 1025,5 30
19.01.2018 15:00:00 - - - - - - -
19.01.2018 14:00:00 - - - - - - -
19.01.2018 13:00:00 14,0 8,8 5 3 S 1026,0 11
19.01.2018 12:00:00 - - - - - - -
19.01.2018 11:00:00 - - - - - - -
19.01.2018 10:00:00 11,6 10,5 0 0 N 1024,7 2,0
19.01.2018 09:00:00 - - - - - - -
19.01.2018 08:00:00 - - - - - - -
19.01.2018 07:00:00 12,0 8,3 5 3 SSW 1022,7 8
19.01.2018 06:00:00 - - - - - - -
19.01.2018 05:00:00 - - - - - - -
19.01.2018 04:00:00 - - - - - - -
19.01.2018 03:00:00 - - - - - - -
19.01.2018 02:00:00 - - - - - - -
19.01.2018 01:00:00 - - - - - - -
19.01.2018 00:00:00 - - - - - - -
18.01.2018 23:00:00 - - - - - - -
18.01.2018 22:00:00 - - - - - - -
18.01.2018 21:00:00 - - - - - - -
18.01.2018 20:00:00 - - - - - - -
18.01.2018 19:00:00 12,8 7,9 11 6 SSW 1023,4 20
18.01.2018 18:00:00 - - - - - - -
18.01.2018 17:00:00 - - - - - - -
18.01.2018 16:00:00 14,2 9,2 5 3 S 1023,1 30
18.01.2018 15:00:00 - - - - - - -
18.01.2018 14:00:00 - - - - - - -
18.01.2018 13:00:00 13,0 5,9 8 4 S 1024,4 20
18.01.2018 12:00:00 - - - - - - -
18.01.2018 11:00:00 - - - - - - -
18.01.2018 10:00:00 7,8 3,1 15 8 SW 1025,1 20

tt = Température de l'air
td = dewpoint
ff = Vitesse du vent
dd = Direction du vent
ppp = reduced air pressure
vv = visibility

stations d'obs. à proximité